{"data":{"norad_id":56131,"intl_designator":"2023-046AR","name":"STARLINK-6120","alt_names":[],"object_type":"PAYLOAD","status":"ACTIVE","operator":null,"country":"US","launch_date":"2023-03-29","launch_site_code":"AFETR","launch_vehicle":null,"mission":null,"orbit_class":"UNKNOWN","rcs_meters":null,"size_class":null,"mass_kg":null,"dimensions":null,"purposes":["comms"],"wikipedia_slug":null,"has_3d_model":false,"image_url":null,"decayed_at":null,"tle_current":{"epoch":"2026-05-25T03:41:15.395424Z","epoch_age_seconds":61799,"freshness":"FRESH","line1":"1 56131U 23046AR  26145.15365041  .00002195  00000+0  89282-4 0  9993","line2":"2 56131  43.0030  75.2113 0001299 268.3903  91.6800 15.27571066173891","mean_motion":15.27571066,"eccentricity":0.0001299,"inclination_deg":43.003,"raan_deg":75.2113,"arg_perigee_deg":268.3903,"mean_anomaly_deg":91.68,"bstar":8.9282e-5,"rev_number":17389,"period_min":94.26730003277,"perigee_km":482.1845762311,"apogee_km":483.96711932895,"semimajor_km":6861.21284778,"source":"CELESTRAK","updated_at":"2026-05-25T13:38:17.960682Z"}}}